Regional Weather Roundup
Issued by NWS Wakefield, VA

Home | Current Version | Previous Version | Text Only | Print | Product List | Glossary On
Versions: 1 2 3 4 5 6 7 8 9 10 11 12 13 14 15 16 17 18 19 20 21 22 23 24 25 26 27 28 29 30 31 32 33 34 35 36 37 38 39 40 41 42 43 44 45 46 47 48 49 50
000
ASUS41 KAKQ 180416
RWRAKQ

REGIONAL WEATHER ROUNDUP
NATIONAL WEATHER SERVICE WAKEFIELD VA
1100 PM EST WED JAN 17 2018

Note: "fair" indicates few or no clouds below 12,000 feet with no
significant weather and/or obstructions to visibility. * = Denotes
station may not report precipitation (e.g., rain,snow,etc.),
thunder or fog.

VAZ042-051-052>054-056-180500-
NORTHERN VIRGINIA

CITY           SKY/WX    TMP DP  RH WIND       PRES   REMARKS
WASH NATIONAL  MOCLDY    21   7  54 NW18      30.31F WCI   6
DULLES         CLOUDY    18   5  57 NW18      30.30F WCI   2
FORT BELVOIR   CLOUDY    21   4  49 NW13G18   30.31S WCI   8
QUANTICO       NOT AVBL
FREDERICKSBRG* MOCLDY    22   9  56 N12G20    30.30S WCI  10
STAFFORD*      FAIR      20   8  57 NW12G17   30.35R WCI   8
WARRENTON      CLOUDY    20   3  47 N8        30.29F
CULPEPER*      CLOUDY    21   3  46 N10       30.30S WCI  10
MANASSAS*      FAIR      18   6  59 N12G22    30.32F WCI   5
LEESBURG*      CLOUDY    19   9  63 N13       30.31F WCI   7
WINCHESTER     CLOUDY    18   5  57 NW10      30.32F WCI   6
FRONT ROYAL*   CLOUDY    19   5  53 NE5       30.30F
LURAY*         CLOUDY    21   5  49 CALM      30.29S
$$

VAZ048-049-060>072-079>083-180500-
CENTRAL AND SOUTH CENTRAL VIRGINIA

CITY           SKY/WX    TMP DP  RH WIND       PRES   REMARKS
RICHMOND       CLOUDY    24   9  52 N17       30.26S WCI  11
CHESTERFIELD*  NOT AVBL
PETERSBURG*    CLOUDY    25   9  50 N8        30.27F
HANOVER        CLOUDY    24   6  46 N8        30.29S
TAPPAHANNOCK*  CLOUDY    26  10  50 NW12G21   30.26F WCI  15
QUINTON*       CLOUDY    24   9  53 N9        30.25F
CHARLOTTSVILLE CLOUDY    24   4  42 NW6       30.26S
GORDONSVILLE*  CLOUDY    22   6  50 MISG      30.27S
ORANGE*        FAIR      21   7  53 CALM      30.27S
LOUISA*        CLOUDY    22   6  51 N6        30.31S
BUMPASS*       CLOUDY    23   4  45 N5        30.28R
FARMVILLE*     CLOUDY    23  22  99 CALM      30.26F
CREWE*         CLOUDY    22  13  67 CALM      30.26S
FORT PICKETT*  CLOUDY    22  11  62 N3        30.25S
CHASE CITY*    CLOUDY    22  18  86 CALM      30.27S
CLARKSVILLE*   CLOUDY    23  18  80 NW6       30.27F
SOUTH HILL*    CLOUDY    21  17  83 N5        30.31F
LAWRENCEVILLE* CLOUDY    22  13  66 CALM      30.25S
EMPORIA*       CLOUDY    23  18  80 NW9       30.26F
$$

VAZ088>098-180500-
SOUTHEAST VIRGINIA

CITY           SKY/WX    TMP DP  RH WIND       PRES   REMARKS
NORFOLK        LGT SNOW  25  22  88 N16G26    30.20F FOG     WCI  12
VIRGINIA BEACH LGT SNOW  26  20  77 N22G32    30.17F WCI  12
NORFOLK NAVAL  LGT SNOW  25  18  74 N18G26    30.22F FOG     WCI  11
WEST POINT*    CLOUDY    25   9  49 N9        30.27S
SALUDA*        CLOUDY    25  11  54 N17       30.24S WCI  12
NEWPORT NEWS   CLOUDY    23  17  78 N9        30.23S
LANGLEY AFB    LGT SNOW  23  19  82 N10       30.21S VSB 1   WCI  13
FORT EUSTIS    FAIR      24  15  67 N10       30.20F WCI  13
WILLIAMSBURG*  MOCLDY    25  19  80 N9        30.24F
HR EXEC AP*    LGT SNOW  23  20  88 N7        30.22F FOG
FRANKLIN*      LGT SNOW  21  18  88 N9        30.24S
US460-WAKEFLD  LGT SNOW  22  15  75 N8G17     30.23F
$$

VAZ020-022-025-037-045-180500-
WEST CENTRAL AND SOUTHWEST VIRGINIA

CITY           SKY/WX    TMP DP  RH WIND       PRES   REMARKS
STAUNTON*      CLOUDY    16   5  62 N6        30.28S
WAYNESBORO*    CLOUDY    17   5  59 N7        30.24S
HOT SPRINGS VA FAIR       3  -2  77 NW21G28   30.08R WCI -18
LYNCHBURG      CLOUDY    21   6  52 NW8       30.25S
DANVILLE       FLURRIES  21  10  62 N13       30.29S WCI   9
SOUTH BOSTON*  CLOUDY    24  21  90 CALM      30.28F
MARTINSVILLE   CLOUDY    17   4  57 NW12G17   30.32S WCI   4
ROANOKE        FAIR      15   2  56 W9        30.33R
BLACKSBURG     FAIR       9   3  75 W8        30.29S
DUBLIN*        FAIR      12   2  66 W6G16     30.30S
MARION*        FLURRIES   9   1  68 W13G20    30.31S WCI  -6
HILLSVILLE*    FAIR       7   1  76 W10G17    30.20S WCI  -8
RICHLANDS*     FLURRIES   6   2  83 NW6       30.32F
WISE*          FLURRIES   9   5  85 W3        30.34F
ABINGDON*      FLURRIES  11   4  74 NW6       30.39S
$$

MDZ021>025-VAZ099-100-180500-
SOUTHERN MARYLAND AND THE DELMARVA PENINSULA

CITY           SKY/WX    TMP DP  RH WIND       PRES   REMARKS
PATUXENT RIVER PTCLDY    24   8  50 N16       30.26F WCI  11
BAY BRIDGE APT FAIR      21   9  58 NW12      30.28F WCI   9
LEONARDTOWN    CLOUDY    25  10  54 NW8       30.27
DOVER          CLEAR     22  13  69 NW13      30.24F WCI   9
GEORGETOWN     MOCLDY    25  10  53 N7        30.25S
EASTON         FAIR      24  10  54 N8G18     30.30F
CAMBRIDGE      MOCLDY    25  10  54 N10       30.26F WCI  15
SALISBURY      CLOUDY    25  11  55 N12       30.24S WCI  14
OCEAN CITY     CLOUDY    25  12  58 N15G25    30.22S WCI  13
WALLOPS ISLAND CLOUDY    26  12  55 N15G22    30.21F WCI  14
ACCOMACK*      CLOUDY    26  14  60 N16G23    30.21F WCI  13
$$

NCZ012>017-030>032-180500-
NORTH CENTRAL AND EASTERN NORTH CAROLINA

CITY           SKY/WX    TMP DP  RH WIND       PRES   REMARKS
ROANOKE RAPIDS LGT SNOW  23  19  86 N14       30.24F WCI  11
RALEIGH        FLURRIES  24  20  84 VRB5      30.26S
ELIZABETH CITY LGT SNOW  26  25  96 N25G31    30.13F FOG     WCI  11
AHOSKIE*       LGT SNOW  21  19  91 N10G18    30.23S WCI  10
EDENTON*       MIX PCPN  26  24  90 N16G23    30.15F WCI  14
CURRITUCK*     LGT SNOW  26  23  90 N20G29    30.14F WCI  12
KILL DEVIL HLS MIX PCPN N/A N/A N/A MISG      30.06F
MANTEO         MIX PCPN  30  28  93 NE21G30   30.09F WCI  17
CAPE HATTERAS  LGT RAIN  35  33  92 N18G36    30.01F WCI  24
TARBORO*       NOT AVBL
GOLDSBORO      FLURRIES  24  19  81 NW17      30.19S WCI  11
WASHINGTON     FLURRIES  26  21  83 N13G26    30.16S WCI  14
GREENVILLE     LGT SNOW  27  23  86 N13       30.20S WCI  16
NEW BERN       LGT SNOW  26  23  88 N18       30.15R FOG     WCI  13
WILMINGTON     CLOUDY    30  26  85 NW16G28   30.16R WCI  19
$$

VAZ048-180500-
ELSEWHERE

CITY           SKY/WX    TMP DP  RH WIND       PRES   REMARKS
HARRISBURG PA  FAIR      17   8  67 W10       30.26F WCI   5
BALTIMORE      FAIR      19   7  59 W8        30.28F
ANNAPOLIS      FAIR      24  11  57 NW10G20   30.28F WCI  14
ANDREWS AFB    FAIR      19   7  58 NW16      30.27F WCI   5
PHILADELPHIA   FAIR      22   9  57 NW10      30.25F WCI  11
HENDERSON NC   MOCLDY    20  15  80 N7        30.26F
GREENSBORO     CLOUDY    20   9  62 N6        30.27R
ROCKY MOUNT    LGT SNOW  23  20  88 N16G25    30.23S FOG     WCI  10
$$

VAZ100-180500-
MARINE

STATION/POSITION TIME  TEMP    WIND        PRES    WAVE   SWELL
                       AIR SEA DIR/SP/G            HT/PER HT/PER
                 (UTC) (F)     (DEG/KT/KT) (MB)    (FT/S) (FT/S)
BRANDYWINE LGT   0342   25     350/ 22/ 28 1023.7F
CAPE MAY NJ      0342   25 33  340/  8/ 17 1022.9F
LEWES DE         0348      33  340/ 20/ 25 1023.9F
15NM E FENWICK I 0350   28 42  320/ 25/ 29 1022.4R   6/ 6   3/10
OCEAN-CITY-INLET 0348   26 35  350/ 16/ 22 1023.5S
WACHAPREAGUE VA  0348   24 33  360/  5/ 19 1022.6F
THOMAS POINT MD  0400   22 31  320/ 17/ 20   N/A
GOOSES REEF MD   0400   24 33  330/ 17/ 23 1024.4    2/ 3
COVE POINT MD    0348   24     360/ 21/ 26 1025.4F
SOLOMONS ISLAND  0348   24 34  340/ 12/ 17 1024.5F
BISHOPS HEAD MD  0348   25 31  340/ 11/ 17 1025.0S
PINEY POINT MD   0336           10/ 12/ 14   N/A
POTOMAC MD       0400   25 34  120/ 16/ 19 1023.5    1/ 3
CAMBRIDGE MD     0348   24 32              1025.4F
LEWISETTA VA     0336   25 32  360/ 13/ 19 1024.9F
RAPPAHANNOCK LGT 0336          350/ 28/ 36 1023.4F
STINGRAY PT      0400   27 34   30/ 21/ 25 1025.7    3/ 3
YORK RVR RNG VA  0336   25      10/ 24/ 27 1023.5F
YORKTOWN VA      0336   24 35  350/ 13/ 16 1023.5F
DOMINION TERM VA 0336   24     110/  2/  5 1023.6R
KIPTOPEKE VA     0336      35   10/ 15/ 19   N/A
CAPE HENRY VA    0336   26     360/ 29/ 36   N/A
WILLOUBY STN VA  0336          350/ 14/ 17 1023.0R
S CRANEY ISL VA  0336   24     350/ 16/ 19 1023.0R
CAPE HENRY BUOY  0400      41                N/A     6/ 6   2/11
1ST LANDING BUOY 0400   26 36   20/ 27/ 33 1022.1    5/ 4
CAPE CHARLES BUO 0351      37                N/A     6/ 5   2/11
64NM E OF VA BCH 0350   37 57  350/ 25/ 31 1019.1F   7/11   3/11
DUCK PIER NC     0336   29 38   10/ 34/ 38 1017.9F
44100 DUCK FRF   0345      43                N/A     9/ 6   2/11
44056 DUCK FRF   0400      40                N/A     9/ 6   2/11
OREGON INLET NC  0336   32 40  360/ 22/ 32 1017.8F
HATTERAS NC      0336   35 44   10/ 31/ 38 1016.1F
DIAMOND SHLS NC  0400   44 72  360/ 33/ 43 1014.6
CAPE LOOKOUT NC  0400          340/ 22/ 26 1018.5R
$$



USA.gov is the U.S. government's official web portal to all federal, state and local government web resources and services.